This is the latest recevied weather packets stored in our database for station/object KI4KWR-1. If no packets are shown the sender has not sent any weather packets the latest 10 day(s).
| Time | Temp. | Humidity | Pressure | Rain* | Wind** | Luminosity | Snow |
|---|---|---|---|---|---|---|---|
| 1788408904 | 24.44° C | 85% | 988 hPa | 0 mm | - | - | - |
| 1788408003 | 24.44° C | 84% | 988.1 hPa | 0 mm | - | - | - |
| 1788407104 | 24.44° C | 84% | 988.1 hPa | 0 mm | - | - | - |
| 1788406203 | 24.44° C | 82% | 988.2 hPa | 0 mm | - | - | - |
| 1788405303 | 25° C | 80% | 988.2 hPa | 0 mm | - | - | - |
| 1788404403 | 25° C | 81% | 988.1 hPa | 0 mm | - | - | - |
| 1788403504 | 25.56° C | 80% | 988.2 hPa | 0 mm | - | - | - |
| 1788402604 | 25.56° C | 79% | 988.1 hPa | 0 mm | - | - | - |
| 1788401704 | 25.56° C | 79% | 988.1 hPa | 0 mm | - | - | - |
| 1788400804 | 26.11° C | 75% | 987.9 hPa | 0 mm | - | - | - |
| 1788399903 | 26.67° C | 74% | 987.8 hPa | 0 mm | - | - | - |
| 1788399004 | 26.67° C | 73% | 987.7 hPa | 0 mm | - | - | - |
| 1788398104 | 27.22° C | 73% | 987.6 hPa | 0 mm | - | - | - |
| 1788397204 | 28.33° C | 70% | 987.5 hPa | 0 mm | - | - | - |
| 1788396304 | 28.89° C | 68% | 987.5 hPa | 0 mm | - | - | - |
| 1788395404 | 29.44° C | 66% | 987.5 hPa | 0 mm | - | - | - |
| 1788394507 | 31.11° C | 61% | 987.4 hPa | 0 mm | - | - | - |
| 1788393604 | 32.22° C | 57% | 987.4 hPa | 0 mm | - | - | - |
| 1788392704 | 33.33° C | 54% | 987.5 hPa | 0 mm | - | - | - |
| 1788391804 | 32.78° C | 55% | 987.4 hPa | 0 mm | - | - | - |
| 1788390904 | 33.89° C | 48% | 987.5 hPa | 0 mm | - | - | - |
| 1788390003 | 34.44° C | 43% | 987.6 hPa | 0 mm | - | - | - |
| 1788389103 | 34.44° C | 42% | 987.6 hPa | 0 mm | - | - | - |
| 1788388204 | 34.44° C | 41% | 987.6 hPa | 0 mm | - | - | - |
| 1788387303 | 34.44° C | 41% | 987.6 hPa | 0 mm | - | - | - |
* Rain latest hour (hover to see other rain measurements)
** Current wind speed in m/s (hover to see current wind gust speed)